Regional Weather Roundup
Issued by NWS Bismarck, ND

Home | Current Version | Previous Version | Text Only | Print | Product List | Glossary On
Versions: 1 2 3 4 5 6 7 8 9 10 11 12 13 14 15 16 17 18 19 20 21 22 23 24 25 26 27 28 29 30 31 32 33 34 35 36 37 38 39 40 41 42 43 44 45 46 47 48 49 50
000
ASUS43 KBIS 030910
RWRBIS

NWR BROADCAST TEXT
NATIONAL WEATHER SERVICE BISMARCK ND
400 AM CDT WED JUN 03 2020

NOTE: "FAIR" INDICATES FEW OR NO CLOUDS BELOW 12,000 FEET WITH NO
SIGNIFICANT WEATHER AND/OR OBSTRUCTIONS TO VISIBILITY.


CITY           SKY/WX    TMP DP  RH WIND       PRES   REMARKS
WILLISTON      FAIR      54  39  57 S7        29.92F
MINOT          CLEAR     54  42  64 SW9       29.92F
MINOT AFB      CLEAR     47  42  83 CALM      29.91F
BISMARCK       CLEAR     50  41  71 CALM      29.97F
DICKINSON      CLEAR     48  38  68 S7        29.96F
GARRISON         N/A     48  40  73 CALM      29.94F
HETTINGER ARPT CLEAR     41  38  89 W3        30.00F
JAMESTOWN      CLEAR     53  46  77 N5        29.94S
CARRINGTON     FAIR      55  43  62 CALM      29.97S
HAZEN          FAIR      41  41 100 CALM      29.98S
MANDAN         FAIR      50  43  76 W6        29.98S
OAKES          FAIR      57  50  77 NW6       29.95R
RUGBY          FAIR      52  46  82 CALM      29.93F
STANLEY        FAIR      46  46 100 CALM      29.95S
TIOGA          FAIR      45  39  81 CALM      29.95F
WATFORD CITY   FAIR      48  39  71 CALM      29.93F
$$

CITY           SKY/WX    TMP DP  RH WIND       PRES   REMARKS
GRAND FORKS    CLEAR     50  44  80 NW6       29.91F
GRAND FORKS AF CLEAR     52  50  95 NW6       29.92F
DEVILS LAKE    PTCLDY    53  45  74 CALM      29.95F
FARGO          CLEAR     55  43  63 N6        29.90S
CANDO          FAIR      50  48  93 S3        29.96F FOG
CAVALIER       FAIR      48  45  87 CALM      29.92S
GRAFTON        FAIR      55  50  82 W6        29.94S
GWINNER        SUNNY     61  46  59 N10       29.93S
LANGDON        FAIR      46  43  87 CALM      29.95S
ROLLA          FAIR      48  43  81 SW6       29.95F
WALHALLA       FAIR      50  50 100 CALM      29.93R
$$

CITY           SKY/WX    TMP DP  RH WIND       PRES   REMARKS
ABERDEEN       CLEAR     57  47  69 N7        29.96R
MOBRIDGE       CLEAR     49  44  83 CALM      29.96F
BUFFALO          N/A     53  44  71 CALM      29.97F
RAPID CITY     MOCLDY    57  52  83 CALM      30.02F
GLASGOW        MOCLDY    58  42  55 SE12      29.84F
SIDNEY         PTCLDY    48  41  76 CALM      29.93F
WOLF POINT     PTCLDY    47  41  80 CALM      29.89F
GLENDIVE       PTCLDY    51  44  77 S8        29.94F
MILES CITY     PTCLDY    57  45  64 SE10      29.92F
BAKER          CLEAR     51  42  71 SE9       29.98F
$$

CITY           SKY/WX    TMP DP  RH WIND       PRES   REMARKS
BILLINGS       MOCLDY    61  48  62 SW12      29.95F
GREAT FALLS    MOCLDY    60  35  39 SW13      29.94S
REGINA         PTCLDY    54  32  43 SE12      29.82
ESTEVAN        CLEAR     46  39  76 S7        29.89F
$$




USA.gov is the U.S. government's official web portal to all federal, state and local government web resources and services.